Weather History for Lone Rock, WI

Change the Weather History Date:

Friday, February 22, 2013

  Actual Average Record
Temperature  
Mean Temperature 27 °F -  
Max Temperature 30 °F 34 °F 51 °F (1998)
Min Temperature 24 °F 19 °F -5 °F (2008)
Degree Days  
Heating Degree Days 38    
Moisture  
Dew Point 22 °F    
Average Humidity 82    
Maximum Humidity 88    
Minimum Humidity 72    
Precipitation  
Precipitation 0.07 in - - ()
Sea Level Pressure  
Sea Level Pressure 29.86 in    
Wind  
Wind Speed 12 mph (ENE)    
Max Wind Speed 21 mph    
Max Gust Speed 29 mph    
Visibility 4 miles    
Events Fog , Snow    
Averages and records for this station are not official NWS values.
T = Trace of Precipitation, MM = Missing Value Source: NWS Daily Summary

Daily Weather History Graph

Daily Weather History Graph

Search for Another Location

Airport:

Trip Planner

Search our weather history database for the weather conditions in past years. The results will help you decide how hot, cold, wet, or windy it might be!

Date:

Astronomy

Feb. 22, 2013 Rise Set
Actual Time 6:47 AM CST 5:41 PM CST
Civil Twilight 6:18 AM CST 6:10 PM CST
Nautical Twilight 5:45 AM CST 6:43 PM CST
Astronomical Twilight 5:12 AM CST 7:16 PM CST
Moon 2:49 PM CST (2/22) 4:36 AM CST (2/22)
Length of Visible Light 11h 51m
Length of Day
10h 53m
Waxing Gibbous, 90% of the Moon is Illuminated
Feb 22
Waxing Gibbous
Feb 25
Full
Mar 4
Last Quarter
Mar 11
New
Mar 19
First Quarter

Hourly Weather History & Observations

Time (CST) Temp. Windchill Dew Point Humidity Pressure Visibility Wind Dir Wind Speed Gust Speed Precip Events Conditions
12:13 AM 26.6 °F 12.7 °F 21.2 °F 80% 29.97 in 0.8 mi ENE 20.7 mph 28.8 mph 0.00 in Snow Light Snow
12:21 AM 26.6 °F 13.4 °F 21.2 °F 80% 29.96 in 0.8 mi ENE 18.4 mph 27.6 mph 0.00 in Snow Light Snow
12:56 AM 25.0 °F 10.9 °F 21.0 °F 85% 29.97 in 0.8 mi East 19.6 mph - 0.01 in Snow Light Snow
1:06 AM 24.8 °F 11.9 °F 21.2 °F 86% 29.95 in 1.0 mi ENE 16.1 mph - 0.00 in Snow Light Snow
1:47 AM 24.8 °F 11.5 °F 21.2 °F 86% 29.94 in 0.8 mi East 17.3 mph 27.6 mph 0.01 in Snow Light Snow
1:56 AM 25.0 °F 11.7 °F 21.0 °F 85% 29.96 in 0.8 mi East 17.3 mph - 0.01 in Snow Light Snow
2:09 AM 24.8 °F 11.9 °F 21.2 °F 86% 29.93 in 1.0 mi East 16.1 mph - 0.00 in Snow Light Snow
2:17 AM 24.8 °F 12.9 °F 21.2 °F 86% 29.92 in 1.0 mi East 13.8 mph - 0.00 in Snow Light Snow
2:56 AM 25.0 °F 12.6 °F 21.0 °F 85% 29.94 in 1.2 mi East 15.0 mph - 0.01 in Snow Light Snow
3:22 AM 24.8 °F 12.4 °F 21.2 °F 86% 29.90 in 0.8 mi East 15.0 mph - 0.00 in Snow Light Snow
3:39 AM 24.8 °F 11.5 °F 21.2 °F 86% 29.89 in 0.5 mi East 17.3 mph - 0.00 in Fog , Snow Snow
3:46 AM 24.8 °F 12.9 °F 21.2 °F 86% 29.88 in 1.0 mi East 13.8 mph - 0.00 in Snow Light Snow
3:56 AM 25.0 °F 12.6 °F 21.0 °F 85% 29.90 in 2.5 mi East 15.0 mph - 0.00 in Snow Light Snow
4:05 AM 24.8 °F 12.9 °F 19.4 °F 80% 29.88 in 3.0 mi East 13.8 mph - 0.00 in Snow Light Snow
4:12 AM 24.8 °F 12.4 °F 19.4 °F 80% 29.87 in 3.0 mi East 15.0 mph - 0.01 in Snow Light Snow
4:34 AM 24.8 °F 11.9 °F 19.4 °F 80% 29.86 in 3.0 mi East 16.1 mph - 0.01 in Snow Light Snow
4:56 AM 25.0 °F 12.2 °F 19.9 °F 81% 29.88 in 8.0 mi East 16.1 mph - 0.01 in   Overcast
5:45 AM 24.8 °F 13.4 °F 19.4 °F 80% 29.85 in 9.0 mi East 12.7 mph - N/A   Overcast
5:56 AM 25.0 °F 13.6 °F 21.0 °F 85% 29.86 in 9.0 mi East 12.7 mph - N/A   Overcast
6:56 AM 25.0 °F 13.6 °F 21.9 °F 88% 29.85 in 3.0 mi East 12.7 mph - N/A   Overcast
7:07 AM 24.8 °F 13.4 °F 21.2 °F 86% 29.83 in 2.0 mi East 12.7 mph - N/A   Overcast
7:49 AM 26.6 °F 17.5 °F 21.2 °F 80% 29.83 in 3.0 mi ENE 9.2 mph - N/A   Overcast
7:56 AM 26.1 °F 17.6 °F 21.9 °F 84% 29.85 in 2.5 mi East 8.1 mph - 0.00 in Snow Light Snow
8:20 AM 26.6 °F 19.1 °F 23.0 °F 86% 29.83 in 1.8 mi East 6.9 mph - 0.00 in Snow Light Snow
8:56 AM 26.1 °F 20.5 °F 23.0 °F 88% 29.84 in 1.2 mi ENE 4.6 mph - 0.00 in Snow Light Snow
9:21 AM 26.6 °F 21.2 °F 23.0 °F 86% 29.82 in 0.8 mi NE 4.6 mph - 0.01 in Snow Light Snow
9:30 AM 26.6 °F 21.2 °F 23.0 °F 86% 29.82 in 1.0 mi NE 4.6 mph - 0.01 in Snow Light Snow
9:43 AM 26.6 °F 21.2 °F 23.0 °F 86% 29.82 in 1.0 mi NE 4.6 mph - 0.01 in Snow Light Snow
9:54 AM 26.6 °F 21.2 °F 23.0 °F 86% 29.82 in 1.0 mi NE 4.6 mph - 0.01 in Snow Light Snow
9:56 AM 27.0 °F 23.0 °F 23.0 °F 85% 29.83 in 1.0 mi NE 3.5 mph - 0.01 in Snow Light Snow
10:07 AM 26.6 °F 22.6 °F 23.0 °F 86% 29.82 in 0.8 mi NE 3.5 mph - 0.00 in Snow Light Snow
10:16 AM 26.6 °F - 23.0 °F 86% 29.82 in 1.0 mi Calm Calm - 0.01 in Snow Light Snow
10:52 AM 28.4 °F - 24.8 °F 86% 29.83 in 0.8 mi Calm Calm - 0.01 in Snow Light Snow
10:56 AM 28.0 °F - 24.1 °F 85% 29.84 in 0.8 mi Calm Calm - 0.01 in Snow Light Snow
11:39 AM 28.4 °F - 24.8 °F 86% 29.81 in 1.0 mi Calm Calm - 0.01 in Snow Light Snow
11:56 AM 28.9 °F 25.2 °F 25.0 °F 85% 29.82 in 1.5 mi East 3.5 mph - 0.01 in Snow Light Snow
12:13 PM 30.2 °F 23.4 °F 24.8 °F 80% 29.79 in 2.5 mi East 6.9 mph - 0.00 in Snow Light Snow
12:21 PM 30.2 °F 26.7 °F 24.8 °F 80% 29.79 in 3.0 mi East 3.5 mph - 0.00 in Snow Light Snow
12:28 PM 30.2 °F 25.4 °F 24.8 °F 80% 29.79 in 2.5 mi ESE 4.6 mph - 0.00 in Snow Light Snow
12:41 PM 28.4 °F - 24.8 °F 86% 29.79 in 3.0 mi Calm Calm - 0.00 in Snow Light Snow
12:56 PM 30.0 °F - 25.0 °F 82% 29.81 in 4.0 mi Calm Calm - 0.00 in   Haze
1:56 PM 28.9 °F - 24.1 °F 82% 29.82 in 2.0 mi Calm Calm - 0.00 in Snow Light Snow
2:17 PM 28.4 °F - 24.8 °F 86% 29.80 in 4.0 mi Calm Calm - 0.00 in Snow Light Snow
2:56 PM 30.0 °F 26.5 °F 24.1 °F 79% 29.82 in 2.5 mi West 3.5 mph - 0.00 in Snow Light Snow
3:12 PM 30.2 °F - 24.8 °F 80% 29.80 in 4.0 mi Calm Calm - 0.00 in Snow Light Snow
3:56 PM 30.9 °F 27.5 °F 24.1 °F 76% 29.81 in 6.0 mi NW 3.5 mph - 0.00 in   Haze
4:56 PM 30.0 °F 25.2 °F 23.0 °F 75% 29.84 in 8.0 mi West 4.6 mph - N/A   Overcast
5:13 PM 30.2 °F 25.4 °F 23.0 °F 75% 29.83 in 7.0 mi West 4.6 mph - N/A   Overcast
5:56 PM 28.9 °F 25.2 °F 23.0 °F 78% 29.85 in 8.0 mi WSW 3.5 mph - N/A   Overcast
6:06 PM 28.4 °F 24.6 °F 23.0 °F 80% 29.83 in 9.0 mi WSW 3.5 mph - N/A   Overcast
6:56 PM 26.1 °F 19.4 °F 21.0 °F 81% 29.86 in 8.0 mi WSW 5.8 mph - N/A   Overcast
7:56 PM 28.0 °F 21.7 °F 21.9 °F 78% 29.87 in 9.0 mi West 5.8 mph - N/A   Overcast
8:56 PM 28.0 °F 21.7 °F 21.0 °F 75% 29.88 in 10.0 mi West 5.8 mph - N/A   Overcast
9:56 PM 28.0 °F 22.8 °F 21.0 °F 75% 29.87 in 9.0 mi West 4.6 mph - N/A   Overcast
10:56 PM 27.0 °F 18.0 °F 19.0 °F 72% 29.87 in 10.0 mi West 9.2 mph - N/A   Overcast
11:56 PM 27.0 °F 17.3 °F 19.0 °F 72% 29.87 in 10.0 mi West 10.4 mph - N/A   Overcast